Weather History for St.-Anicet, QC

Change the Weather History Date:

Saturday, October 15, 2011

  Actual Average Record
Temperature  
Mean Temperature 52 °F -  
Max Temperature 57 °F - - ()
Min Temperature 48 °F - - ()
Degree Days  
Heating Degree Days 12    
Growing Degree Days 2 (Base 50)    
Moisture  
Dew Point 48 °F    
Average Humidity 85    
Maximum Humidity 95    
Minimum Humidity 71    
Precipitation  
Precipitation 0.16 in - - ()
Sea Level Pressure  
Sea Level Pressure 29.28 in    
Wind  
Wind Speed 12 mph ()    
Max Wind Speed 20 mph    
Max Gust Speed -    
T = Trace of Precipitation, MM = Missing Value Source: Averaged Metar Reports

Daily Weather History Graph

Daily Weather History Graph

Search for Another Location

Airport:

Trip Planner

Search our weather history database for the weather conditions in past years. The results will help you decide how hot, cold, wet, or windy it might be!

Date:

Astronomy

Oct. 15, 2011 Rise Set
Actual Time 7:12 AM EDT 6:12 PM EDT
Civil Twilight 6:42 AM EDT 6:42 PM EDT
Nautical Twilight 6:08 AM EDT 7:16 PM EDT
Astronomical Twilight 5:34 AM EDT 7:50 PM EDT
Moon 7:56 PM EDT (10/15) 10:45 AM EDT (10/15)
Length of Visible Light 11h 59m
Length of Day
10h 59m
Waning Gibbous, 89% of the Moon is Illuminated
Oct 15
Waning Gibbous
Oct 19
Last Quarter
Oct 26
New
Nov 2
First Quarter
Nov 10
Full

Hourly Weather History & Observations

Time (EDT) Temp. Dew Point Humidity Pressure Visibility Wind Dir Wind Speed Gust Speed Precip Events Conditions
12:00 AM 58.1 °F 55.8 °F 92% 29.18 in - SW 8.1 mph - N/A   Unknown
1:00 AM 57.7 °F 54.7 °F 90% 29.18 in - SW 10.4 mph - N/A   Unknown
2:00 AM 57 °F 54 °F 84% 29.18 in - WSW 15.0 mph - -  
2:00 AM 57.4 °F 53.6 °F 87% 29.18 in - WSW 15.0 mph - N/A   Unknown
3:00 AM 55.2 °F 53.8 °F 95% 29.19 in - WSW 13.8 mph - 0.08 in   Unknown
4:00 AM 54.7 °F 52.7 °F 93% 29.21 in - WSW 13.8 mph - N/A   Unknown
5:00 AM 54.1 °F 51.6 °F 91% 29.23 in - WSW 12.7 mph - N/A   Unknown
6:00 AM 54.0 °F 50.2 °F 87% 29.24 in - SW 13.8 mph - N/A   Unknown
7:00 AM 53.4 °F 49.3 °F 86% 29.26 in - WSW 11.5 mph - N/A   Unknown
8:00 AM 52 °F 48 °F 81% 29.28 in - SW 13.8 mph - -  
8:00 AM 52.2 °F 47.8 °F 85% 29.28 in - SW 13.8 mph - N/A   Unknown
9:00 AM 51.8 °F 47.5 °F 85% 29.30 in - SW 15.0 mph - N/A   Unknown
10:00 AM 52.7 °F 46.2 °F 79% 29.31 in - SW 15.0 mph - N/A   Unknown
11:00 AM 51.4 °F 46.4 °F 83% 29.31 in - SW 15.0 mph - N/A   Unknown
12:00 PM 52.2 °F 46.9 °F 82% 29.32 in - WSW 10.4 mph - N/A   Unknown
1:00 PM 51.1 °F 47.7 °F 88% 29.31 in - West 10.4 mph - N/A   Unknown
2:00 PM 53 °F 48 °F 77% 29.30 in - WSW 11.5 mph - -  
2:00 PM 52.5 °F 47.8 °F 84% 29.30 in - WSW 11.5 mph - 0.06 in   Unknown
3:00 PM 54.9 °F 45.5 °F 71% 29.29 in - SW 11.5 mph - N/A   Unknown
4:00 PM 48.4 °F 43.9 °F 84% 29.32 in - WSW 18.4 mph - N/A   Unknown
5:00 PM 49.3 °F 43.9 °F 82% 29.32 in - SW 13.8 mph - N/A   Unknown
6:00 PM 49.8 °F 43.3 °F 78% 29.32 in - SW 15.0 mph - N/A   Unknown
7:00 PM 50.2 °F 44.1 °F 79% 29.33 in - SW 13.8 mph - N/A   Unknown
8:00 PM 49 °F 45 °F 80% 29.33 in - SW 15.0 mph - -  
8:00 PM 49.5 °F 44.8 °F 84% 29.33 in - SW 15.0 mph - N/A   Unknown
9:00 PM 48.6 °F 45.3 °F 89% 29.34 in - SW 16.1 mph - N/A   Unknown
10:00 PM 48.2 °F 45.5 °F 90% 29.35 in - SW 17.3 mph - 0.06 in   Unknown
11:00 PM 48.2 °F 45.1 °F 89% 29.37 in - WSW 19.6 mph - N/A   Unknown